GFSMW_500_rhum_003.txt.gz
RH
20 21 20 16 14 11 30 50 47 41 38 31 31 37 30 26 37 52 69 74 61 50 52 52 51 50 48 47 47 49 43 25 13 17 32 35 42 55 52 46 48 51 50
21 23 24 21 19 14 16 38 46 44 41 36 33 40 40 29 44 56 74 77 69 58 59 58 54 49 47 52 55 53 40 18 14 27 38 49 50 53 47 48 53 51 51
28 25 26 23 22 17 14 29 48 44 41 48 42 49 52 39 48 60 68 80 80 71 67 64 59 52 47 47 48 49 34 15 17 30 40 46 52 52 53 52 51 52 56
37 31 26 23 24 18 14 16 36 45 40 45 50 39 49 41 37 52 70 78 79 76 76 69 62 52 46 44 43 43 27 14 25 37 44 50 52 51 46 49 50 56 62
30 34 32 27 28 22 16 15 24 42 41 45 46 36 40 44 29 33 45 52 58 63 63 59 52 46 43 40 40 38 15 16 35 48 51 54 52 48 50 52 54 62 48
21 26 34 30 33 28 20 16 18 39 45 48 48 39 33 39 41 42 43 40 44 47 46 43 40 39 43 38 37 17 15 27 41 56 54 52 55 58 56 59 60 54 50
25 24 26 34 40 34 24 19 18 31 45 48 49 46 39 30 29 34 35 31 28 28 31 34 38 38 36 34 18 16 27 34 56 57 51 60 59 58 67 70 60 48 43
36 33 32 38 42 41 28 20 18 36 46 48 50 48 40 34 31 28 14 12 15 20 31 35 35 36 30 19 18 27 37 52 57 56 67 73 71 75 77 61 56 42 47
39 42 37 34 36 41 30 21 32 44 49 48 51 45 38 34 35 32 15 7 12 21 28 32 32 30 20 20 27 34 46 55 59 70 75 79 79 63 63 63 64 62 50
34 34 39 40 39 39 32 23 29 41 51 49 44 39 33 30 30 25 14 5 11 21 33 36 31 22 21 27 32 44 59 69 75 78 78 60 57 62 67 68 64 56 42
34 35 37 40 42 39 30 23 34 47 53 47 43 40 36 32 34 34 32 20 18 33 44 34 25 22 28 32 49 70 80 81 82 53 46 58 66 75 69 63 53 36 30
31 35 39 44 42 40 29 37 51 59 51 46 45 43 42 45 51 48 41 30 28 45 38 30 29 33 45 64 81 86 84 68 41 52 65 76 76 69 62 47 34 30 25
32 34 38 41 46 43 40 53 68 61 54 49 52 52 54 56 58 50 38 27 49 43 32 36 47 70 84 82 78 75 49 42 64 69 80 72 67 54 39 34 28 24 20
37 32 38 46 51 49 58 67 72 64 59 56 61 57 59 62 53 32 30 49 46 35 40 73 90 85 81 71 62 42 55 69 77 78 69 58 44 39 32 26 22 16 14
42 40 48 59 57 56 71 74 74 66 62 62 62 61 58 45 32 37 44 40 36 61 89 92 82 68 65 62 50 66 71 81 73 64 50 43 37 30 25 18 14 15 16
70 84 85 77 68 62 71 78 72 71 73 72 63 57 48 38 48 42 28 43 87 94 88 80 73 70 63 62 69 76 79 67 59 47 45 35 29 23 18 18 17 15 7
86 93 98 98 93 89 86 83 79 78 78 68 51 42 47 46 26 38 85 90 89 86 82 74 66 59 68 71 81 73 63 55 48 44 33 26 21 20 19 14 10 3 4
78 94 99 92 91 88 83 81 73 60 50 47 46 41 23 40 84 92 86 88 86 75 68 56 62 70 78 80 66 61 52 50 41 32 25 22 19 16 14 7 2 4 9
98 97 98 97 99 90 70 60 55 47 35 20 23 50 86 90 81 84 84 74 64 60 55 67 76 82 70 66 60 53 51 39 29 26 22 18 16 13 4 2 5 9 8
100 98 98 97 96 92 79 40 22 27 42 69 82 85 84 88 87 71 64 64 53 65 75 82 77 63 65 60 56 45 36 29 24 21 21 16 11 3 2 7 10 8 43
98 100 100 89 83 77 62 59 64 72 76 82 89 92 95 83 75 63 50 64 77 81 82 68 66 66 63 53 43 35 30 25 22 20 15 10 3 4 10 11 12 54 72
88 92 96 93 86 83 83 80 78 86 88 92 97 92 82 59 45 61 78 80 85 75 66 68 69 61 48 42 36 32 27 23 18 14 9 3 7 11 12 20 69 76 78
81 77 72 83 94 91 86 86 89 94 98 92 76 45 38 54 78 76 86 84 68 66 70 67 54 47 43 39 32 27 23 18 14 6 3 9 12 13 34 76 76 77 67
81 90 93 89 87 90 92 98 93 74 48 44 45 60 76 73 83 91 75 65 69 71 60 46 46 44 37 28 26 23 16 12 5 3 10 12 15 42 76 76 51 37 37
93 88 85 88 95 97 87 57 48 48 47 54 68 69 80 91 84 70 68 72 66 51 45 46 41 33 27 25 21 14 12 5 3 9 12 18 46 84 70 44 41 46 42
85 84 93 97 87 58 49 46 44 44 53 64 78 94 91 77 67 70 71 63 48 46 44 39 31 27 26 19 14 11 4 4 9 13 19 54 80 53 48 53 46 37 38

GFSMW_500_rhum_006.txt.gz
RH
11 14 16 21 16 12 11 11 46 54 50 45 41 41 46 44 35 34 28 32 45 68 76 68 48 49 53 53 50 47 47 51 54 53 50 32 14 17 32 37 40 44 45
18 14 17 19 26 18 15 13 15 44 57 56 53 56 56 52 42 37 34 28 51 61 74 71 59 58 59 59 57 53 48 45 45 46 48 37 21 21 34 42 45 46 45
20 19 20 19 27 24 21 18 14 26 43 58 54 57 52 58 54 49 48 38 51 59 73 79 74 71 70 71 69 59 50 48 47 43 42 27 19 27 42 49 52 55 55
22 22 20 23 27 26 26 24 21 17 21 44 53 54 60 56 53 54 56 43 49 62 71 83 85 77 74 77 81 54 47 48 45 44 38 19 17 26 37 53 55 60 60
22 26 23 25 29 29 28 27 25 20 19 39 50 54 65 60 57 47 53 45 38 50 62 70 67 62 61 58 50 44 44 54 45 39 21 17 25 27 33 44 52 52 62
22 27 32 25 28 26 27 28 25 20 16 16 35 57 60 54 49 39 39 50 40 38 41 41 41 43 42 37 34 38 42 38 32 22 17 24 26 36 36 37 55 67 72
23 28 29 32 30 32 31 31 26 23 18 14 18 56 54 54 50 52 42 42 46 45 40 34 31 27 26 27 36 35 32 28 23 16 22 24 33 36 49 62 62 63 61
27 27 30 29 27 27 32 35 30 28 22 18 17 40 52 56 60 60 48 39 32 26 20 14 13 15 23 30 31 30 27 21 18 18 23 31 43 64 69 72 59 50 51
28 30 36 26 23 23 35 41 38 35 28 21 20 25 47 60 60 55 49 42 37 30 19 15 14 19 25 29 33 30 19 20 19 25 38 54 66 70 61 43 45 45 35
29 29 35 34 23 27 38 43 42 40 34 25 23 21 44 60 57 48 44 42 34 25 17 15 18 26 34 35 30 23 21 21 36 56 64 68 65 45 41 44 45 54 48
30 30 34 37 34 36 38 37 38 38 37 28 20 30 49 59 51 46 44 43 44 45 46 38 33 40 37 32 26 22 38 61 69 67 67 49 45 47 48 59 53 47 45
27 30 36 37 41 43 41 36 34 35 36 29 32 39 60 57 52 52 51 58 62 60 50 42 44 41 37 29 30 62 78 71 64 65 56 52 52 68 59 50 49 47 41
24 32 40 39 40 40 42 41 38 38 36 32 34 64 63 57 58 62 66 72 73 62 44 52 53 39 30 52 81 84 71 68 66 54 54 68 67 56 52 50 47 31 24
21 31 43 39 39 39 43 42 42 40 39 48 73 72 65 64 67 74 76 79 68 43 59 76 45 41 79 88 82 73 65 54 54 65 71 61 54 53 52 38 28 22 16
23 35 44 39 44 43 44 45 54 61 73 82 84 79 79 83 84 82 83 65 54 68 84 44 70 92 91 83 68 56 50 63 74 68 58 55 55 46 31 25 19 16 16
45 47 47 49 49 52 60 58 68 78 83 94 93 89 94 90 83 66 62 63 70 75 53 91 98 97 77 63 50 56 72 74 63 58 60 54 38 30 24 19 18 16 12
55 62 63 60 62 64 64 68 84 97 99 92 80 100 92 83 78 60 66 64 58 87 96 100 90 66 55 52 68 76 70 60 62 61 47 35 32 24 20 17 13 10 4
64 66 65 70 80 80 80 88 94 94 95 100 100 98 85 64 60 59 52 85 97 100 97 75 62 49 64 78 78 66 63 66 53 39 38 32 23 20 16 12 8 3 5
85 86 99 100 100 100 94 98 100 100 100 97 83 67 59 46 51 85 93 100 100 84 71 49 61 78 83 74 64 65 62 44 39 37 31 24 20 15 11 6 3 6 10
92 96 98 99 96 91 96 99 99 97 86 74 44 29 47 84 91 100 100 92 80 50 51 76 83 84 70 64 67 51 40 38 33 28 25 20 13 10 4 4 7 10 20
98 98 96 97 97 98 96 95 78 53 49 59 69 84 95 100 100 98 82 51 46 75 82 88 79 66 68 61 44 38 37 32 28 26 18 13 9 4 5 8 11 34 71
95 90 89 93 86 87 92 78 71 78 82 89 98 100 100 95 73 47 45 70 78 90 89 75 71 69 53 40 38 39 34 31 26 17 14 9 3 6 8 14 51 72 57
100 97 98 98 95 94 91 90 89 96 99 100 98 82 54 45 51 73 76 86 95 80 72 71 64 48 40 40 40 36 32 25 17 14 7 3 7 11 28 60 60 40 42
89 95 100 100 100 99 95 92 90 96 87 58 48 45 49 68 74 81 97 85 73 68 67 57 45 42 40 37 37 31 21 16 13 6 4 7 15 43 53 38 39 44 36
93 95 97 90 82 85 89 91 70 48 49 45 45 55 67 81 95 88 77 68 68 63 50 43 40 34 34 34 26 17 15 11 5 4 6 16 48 42 39 46 40 31 31
98 91 78 77 82 86 64 48 47 43 46 52 62 77 94 87 80 71 68 68 56 45 42 36 33 33 29 22 15 14 9 4 4 6 17 46 32 32 33 33 33 37 52

GFSMW_500_rhum_012.txt.gz
RH
14 13 13 14 14 13 13 13 15 14 12 10 10 14 22 42 50 52 56 59 61 56 56 53 53 43 36 34 30 47 62 78 65 55 61 64 65 69 69 58 48 48 52
15 15 12 12 14 14 13 12 16 19 14 12 12 13 10 11 13 40 55 67 66 62 54 56 59 51 44 36 30 51 62 76 78 75 73 74 75 69 68 66 46 46 50
12 12 13 13 14 14 15 14 13 16 16 10 19 18 13 10 12 22 28 53 65 64 66 63 56 59 61 55 45 52 60 74 80 81 79 80 76 65 54 45 42 45 44
11 13 14 14 14 15 16 15 16 16 13 12 11 18 20 13 13 15 20 34 61 66 66 64 64 63 60 63 47 45 49 63 72 74 77 60 47 42 33 37 34 26 24
13 14 15 14 15 15 16 17 16 16 14 16 14 17 19 18 16 18 18 26 46 64 62 67 72 70 49 52 57 55 42 36 40 45 45 40 30 19 23 18 20 22 27
14 16 16 15 16 18 17 17 16 15 13 18 17 14 20 21 21 20 21 26 28 59 66 67 66 61 56 49 45 46 47 44 37 27 16 13 13 12 10 21 27 29 27
33 27 19 15 17 15 17 18 16 18 14 20 21 16 21 25 25 25 36 41 33 47 65 67 68 64 61 58 50 44 40 36 29 20 16 16 22 31 30 31 30 25 43
38 38 30 26 21 16 15 18 17 18 18 24 26 21 16 30 30 31 43 50 49 42 52 64 66 64 64 60 54 48 41 31 29 40 40 39 37 33 29 26 26 36 49
40 39 27 24 25 23 19 16 16 20 22 25 32 20 22 34 35 47 46 53 47 44 48 65 70 71 62 54 51 47 51 60 58 53 49 44 36 32 43 56 58 54 47
56 40 27 19 14 18 19 20 16 20 21 26 33 24 36 40 36 41 57 59 65 48 51 65 73 69 58 55 56 64 73 71 61 51 57 41 44 71 70 66 55 41 45
86 65 34 23 13 23 17 14 17 18 19 26 31 37 47 41 32 50 47 46 44 57 57 67 71 66 64 66 79 92 86 62 52 63 43 74 82 79 60 44 56 67 55
49 50 46 52 51 69 49 15 17 17 19 34 42 40 42 41 41 46 43 45 53 54 60 74 72 69 83 97 94 93 60 66 77 52 85 88 70 51 48 71 62 50 44
54 38 56 87 95 100 99 35 46 18 30 44 40 38 40 44 42 49 58 56 63 60 73 79 77 95 100 96 94 81 65 65 65 94 89 63 47 68 72 56 48 38 26
54 68 94 100 99 90 90 66 60 57 55 44 39 37 42 48 52 64 60 64 68 74 82 79 91 92 98 98 94 72 67 91 98 85 57 58 80 66 54 46 32 25 20
60 87 100 100 98 100 76 92 96 66 55 45 43 43 46 57 72 64 69 80 75 86 82 74 91 100 91 81 67 81 98 100 84 54 76 80 60 53 40 27 23 19 14
95 100 100 94 99 100 98 100 74 62 54 51 47 46 54 64 61 76 72 87 84 82 78 100 98 97 69 63 94 100 100 74 57 86 75 62 52 34 28 24 18 12 8
93 80 67 54 95 85 83 74 85 80 67 61 51 56 71 98 87 82 81 91 78 93 100 99 79 58 84 100 100 99 60 72 87 68 61 46 33 30 20 10 8 7 6
36 35 41 70 75 82 71 75 92 72 66 60 69 87 96 96 88 99 96 90 100 99 86 66 71 100 99 100 79 61 83 87 64 58 40 33 28 15 9 8 5 5 5
35 43 60 58 65 70 69 65 67 72 97 99 90 78 73 95 96 99 100 98 81 78 72 83 100 100 87 60 77 92 74 62 54 40 34 30 22 12 9 6 5 5 4
56 57 53 55 60 65 68 78 84 86 99 68 92 98 96 83 100 98 84 91 82 82 98 100 85 56 70 84 92 67 62 47 39 36 32 25 16 11 8 5 4 4 7
60 60 61 64 81 93 99 98 99 97 99 98 99 94 98 93 86 86 77 89 97 96 71 53 67 82 95 79 64 58 44 38 36 33 26 18 13 10 7 5 4 11 20
97 95 97 94 98 95 90 88 91 87 87 96 89 79 81 82 86 90 92 78 54 50 62 75 91 88 66 63 51 42 37 36 32 21 13 11 10 8 5 4 14 15 12
99 99 91 71 78 81 90 93 91 92 85 82 74 76 88 92 76 53 49 50 58 69 90 93 76 66 61 48 41 37 35 32 19 13 12 11 10 6 4 15 14 15 16
74 89 96 91 85 80 92 92 84 79 76 84 92 89 61 46 46 50 57 66 88 93 83 69 67 59 50 42 38 34 29 18 14 12 14 12 5 4 15 14 16 17 22
92 81 78 85 88 87 88 86 87 94 94 77 52 45 46 51 56 71 90 94 88 72 65 66 58 52 44 40 36 27 19 16 15 16 14 6 5 13 15 18 18 22 38
92 90 94 96 98 98 98 90 71 59 53 51 53 53 58 78 88 90 87 76 63 66 65 57 52 47 43 35 26 20 18 19 18 16 8 5 11 17 20 21 29 33 45

GFSMW_500_rhum_015.txt.gz
RH
10 10 10 11 11 12 13 12 9 9 11 30 26 12 16 17 18 28 35 52 57 58 63 62 61 61 54 57 52 53 49 41 31 39 55 66 77 72 71 76 77 78 72
12 12 12 11 12 13 15 14 10 8 9 14 23 22 21 20 25 23 18 20 27 41 44 54 63 65 64 66 57 56 56 59 46 47 55 64 72 78 81 77 77 71 57
12 13 14 14 13 14 15 16 13 10 10 11 25 32 32 35 41 36 26 19 21 22 40 44 58 66 70 67 64 65 61 64 61 47 45 48 57 62 63 58 51 45 40
9 10 11 12 12 13 14 13 13 12 11 12 16 18 24 22 29 27 28 25 23 27 28 28 44 58 62 65 71 73 59 49 54 58 57 51 46 45 44 40 23 14 15
10 11 12 11 10 12 13 16 15 14 12 11 17 20 25 24 29 36 36 33 33 33 29 21 27 46 60 63 70 67 67 62 55 48 43 38 35 32 28 18 14 13 15
12 13 13 13 14 14 12 13 17 16 13 13 13 15 20 22 32 40 35 32 42 30 32 27 43 40 58 65 67 64 67 66 57 51 47 42 36 31 27 30 36 38 38
19 14 9 8 11 13 15 17 18 16 14 14 14 15 21 21 30 38 38 32 36 42 42 47 41 46 49 62 59 67 68 60 52 50 47 41 47 51 48 45 42 39 35
26 26 24 20 15 10 14 16 23 22 17 15 15 16 18 24 34 31 32 29 37 47 53 49 50 53 44 53 63 68 62 56 54 54 60 64 63 60 50 45 40 36 40
39 39 36 26 20 14 20 22 33 27 22 17 17 18 18 26 35 31 32 34 42 46 64 61 58 49 58 63 61 66 62 62 66 77 75 77 66 52 47 43 37 39 45
63 64 36 21 18 19 51 37 36 34 25 20 18 19 26 36 36 39 39 39 44 56 69 66 69 69 64 59 65 70 68 72 82 85 86 68 52 56 47 54 73 68 56
100 61 40 30 25 24 47 33 23 28 33 22 20 18 27 34 44 40 44 48 52 63 73 66 75 56 59 62 75 77 75 78 84 84 74 62 60 54 80 82 67 51 56
92 78 64 54 30 59 51 32 19 18 34 27 22 18 25 36 43 43 50 54 62 72 73 72 68 60 60 75 78 76 79 91 83 76 79 58 71 90 88 62 56 75 60
85 81 73 81 91 59 52 43 26 20 35 39 27 21 24 30 38 44 56 62 70 73 76 62 65 66 79 83 78 88 100 100 89 79 63 94 97 89 57 71 74 54 42
96 80 71 59 48 47 54 50 67 25 51 57 63 25 22 30 38 52 62 68 70 73 78 83 75 76 82 86 90 96 100 97 68 74 98 100 84 59 80 68 52 38 29
73 72 68 64 50 64 90 99 99 80 66 99 73 34 36 39 47 62 63 63 69 84 69 97 79 91 97 86 100 100 98 73 96 100 100 73 71 81 61 49 34 30 27
68 83 83 81 90 82 100 100 88 47 65 98 62 46 32 38 53 54 72 89 94 80 80 90 100 89 99 100 100 94 95 98 100 99 68 84 80 57 47 35 34 30 22
77 94 98 94 97 100 98 97 98 97 80 63 48 44 42 41 56 75 86 88 80 76 92 98 81 100 100 96 97 100 100 100 80 77 88 71 56 45 38 36 29 18 12
37 46 75 98 100 100 100 100 84 71 68 60 52 54 61 72 75 96 85 90 88 95 99 100 100 95 94 100 100 100 91 71 86 86 62 55 43 39 38 29 16 11 8
37 61 73 99 92 86 89 80 74 94 75 74 86 79 80 87 96 97 98 98 99 98 98 96 88 96 100 100 84 66 79 87 78 59 54 44 38 39 29 16 11 10 9
60 62 77 84 86 83 83 98 99 87 90 100 98 98 98 94 100 95 99 98 82 90 87 85 87 80 63 59 72 82 91 68 62 54 44 39 35 29 19 15 14 14 8
59 68 77 79 77 76 95 96 80 77 91 99 99 72 97 98 98 96 100 89 82 81 67 52 51 53 61 73 84 79 65 65 53 46 43 36 28 20 18 18 14 9 4
72 68 93 99 99 99 99 98 99 99 98 97 94 96 95 89 78 70 69 65 50 50 51 51 55 68 83 84 71 70 63 54 47 43 38 29 22 22 21 15 10 4 12
100 98 93 99 100 88 72 100 97 91 87 88 85 79 82 78 66 50 46 47 47 46 52 71 84 84 71 68 68 60 54 50 46 43 40 30 28 27 21 12 4 11 15
98 99 96 82 88 88 86 98 89 87 91 90 79 71 59 49 46 46 46 46 56 79 86 82 72 67 66 63 60 56 53 51 50 46 36 33 32 24 14 4 9 15 16
88 92 98 92 88 84 81 75 71 71 68 62 57 54 52 52 50 50 66 82 81 78 68 63 66 65 62 59 54 52 51 47 42 40 40 34 22 16 6 8 16 16 27
92 95 86 71 70 73 71 66 65 64 63 63 62 59 56 60 76 80 76 74 66 62 65 64 61 55 46 44 47 48 46 44 43 37 27 21 13 6 8 18 19 27 35

GFSMW_500_rhum_018.txt.gz
RH
11 9 9 8 8 9 8 8 7 8 16 39 41 36 40 45 24 19 24 28 37 45 46 53 52 52 56 62 63 62 63 64 57 54 55 62 57 47 54 64 73 80 81
13 12 11 10 10 10 11 11 10 10 10 15 26 30 24 27 30 20 18 27 36 38 27 24 22 23 27 45 60 67 66 67 65 67 63 60 61 54 46 44 47 54 56
14 15 15 16 15 14 14 14 12 11 10 10 19 33 47 48 44 45 38 46 44 39 34 29 25 34 32 34 45 63 63 64 68 70 63 51 47 48 52 52 48 43 41
14 14 13 12 12 13 14 15 17 14 12 12 14 26 31 38 33 45 47 50 44 46 42 36 30 33 26 24 43 61 63 63 64 66 66 64 59 52 47 44 40 37 35
12 11 11 10 10 9 9 10 12 12 12 13 13 21 38 40 36 31 37 50 61 57 54 52 50 43 41 25 33 51 57 52 59 61 66 64 59 53 47 42 38 36 38
10 10 9 10 11 10 11 11 12 13 11 10 11 13 27 33 39 34 31 36 44 58 52 50 60 56 41 36 46 42 48 54 56 58 62 58 52 50 49 49 52 57 61
12 12 13 13 14 17 15 14 15 14 14 12 10 10 12 14 20 26 26 40 51 50 65 56 54 53 51 52 59 54 50 48 55 50 58 57 55 50 47 45 45 52 53
15 16 17 18 20 21 22 19 17 10 12 14 14 15 10 11 15 24 29 38 50 59 64 62 54 56 67 64 58 69 50 55 52 52 62 60 58 53 48 48 46 48 51
20 25 31 34 33 37 36 35 34 29 20 10 11 14 16 12 14 20 25 38 63 67 76 58 48 67 73 66 67 62 63 88 54 56 63 66 58 56 57 55 58 58 48
49 52 51 53 62 68 63 59 45 35 28 22 16 12 13 19 17 30 41 56 57 67 64 64 52 68 71 70 69 69 65 73 54 60 64 64 68 73 71 70 66 51 56
36 30 42 63 82 80 73 41 26 20 19 16 15 11 11 26 22 31 45 51 62 61 65 56 56 60 68 73 75 76 93 51 56 67 76 79 94 88 82 68 61 83 79
23 32 74 100 96 76 73 49 37 28 25 26 32 19 32 32 28 36 49 52 60 64 55 52 59 67 71 84 93 70 57 60 68 82 86 100 100 100 79 76 88 87 67
37 56 42 84 99 94 56 43 35 31 26 27 51 41 36 52 41 47 47 43 58 51 58 62 69 76 77 79 64 70 67 74 93 99 92 100 100 98 88 90 91 62 74
45 48 39 62 65 67 48 40 34 34 40 46 61 42 47 75 60 58 56 64 48 59 60 67 73 69 91 88 81 73 81 100 91 93 100 100 98 96 89 91 65 84 71
58 70 64 54 39 40 44 45 49 49 60 65 68 47 57 73 58 46 51 37 49 52 58 68 85 74 65 81 78 87 100 94 97 100 99 98 92 89 80 73 87 67 56
64 87 92 81 67 59 51 100 100 89 47 67 70 39 82 69 100 55 31 38 49 59 66 73 93 80 89 99 98 82 68 100 100 97 86 93 92 68 86 85 65 52 38
56 83 89 72 54 76 99 100 96 89 82 53 54 66 83 98 52 41 41 48 62 72 64 90 97 76 70 88 88 81 97 94 89 100 97 72 81 91 80 70 53 42 41
67 73 66 71 83 97 100 100 99 76 67 98 94 97 93 61 51 58 61 60 74 76 98 99 75 100 81 100 99 88 84 94 83 68 77 89 92 80 70 53 45 43 32
61 94 85 81 88 97 95 99 99 99 100 98 93 94 79 65 58 54 59 90 97 99 97 100 98 96 98 95 78 69 59 57 67 84 93 87 75 65 56 51 44 41 37
58 78 85 77 84 93 98 99 95 85 73 73 69 68 63 64 69 85 98 79 90 98 98 99 98 90 85 56 50 54 56 78 94 87 75 68 66 59 52 50 49 46 40
57 94 95 93 90 92 97 96 91 88 93 97 98 97 92 98 98 99 97 98 96 93 96 85 64 48 48 49 61 79 88 83 73 69 74 68 61 57 54 52 48 45 43
90 92 90 95 97 98 94 97 87 90 86 96 97 95 96 97 96 91 85 81 80 64 49 48 47 53 69 75 69 66 60 62 70 69 65 59 55 54 53 53 50 34 19
90 99 100 98 94 84 83 85 83 88 86 74 79 75 72 76 69 57 50 48 49 50 52 57 61 56 53 55 54 58 64 64 58 49 48 46 46 49 47 31 22 13 6
90 90 87 100 99 92 87 80 75 74 76 80 71 64 56 53 51 51 52 50 49 48 50 48 49 51 53 57 61 56 47 42 39 35 34 35 39 36 30 18 9 5 8
93 97 88 83 85 81 74 72 70 67 63 62 59 56 57 58 54 48 46 46 48 51 52 52 54 53 47 39 32 28 25 23 24 30 35 38 33 20 11 6 4 10 22
87 94 87 83 76 75 73 72 73 68 64 63 62 60 55 53 54 55 54 54 54 54 52 45 36 29 24 17 14 12 11 11 14 16 16 12 9 6 5 5 16 24 30

GFSMW_500_rhum_021.txt.gz
RH
13 9 8 8 8 8 8 8 7 7 8 17 19 35 54 68 64 48 43 37 26 22 32 41 50 54 46 36 36 36 35 37 55 63 66 65 52 60 60 55 61 59 51
11 10 9 8 8 9 9 10 9 7 7 9 11 9 14 33 57 62 60 51 21 20 31 39 40 34 24 23 22 29 31 31 40 54 58 58 59 65 62 57 53 48 46
11 10 10 10 10 10 12 12 11 9 7 8 12 14 14 13 25 40 62 51 50 39 34 38 43 40 31 26 25 30 22 20 26 36 49 54 59 60 60 59 56 52 49
11 14 15 14 14 13 14 14 15 14 10 10 9 28 26 18 20 41 50 64 74 69 57 55 58 58 52 42 36 34 30 24 22 31 38 44 48 48 51 56 52 48 45
12 14 15 15 15 14 14 14 13 13 13 13 13 14 22 23 26 24 34 53 64 68 74 71 66 57 59 60 54 50 45 32 32 36 37 41 42 43 45 47 50 50 45
12 12 12 12 12 12 11 11 11 11 12 11 10 10 11 20 29 40 42 56 58 62 67 63 60 71 68 64 65 62 55 44 48 48 47 46 41 43 33 43 46 47 48
11 11 11 11 11 11 11 11 11 12 12 11 10 9 9 8 10 16 46 46 60 61 61 63 61 69 68 60 68 65 58 53 57 56 64 52 53 48 42 45 45 50 58
9 10 11 13 16 18 20 19 18 19 17 17 16 15 12 9 8 17 20 38 50 43 46 73 65 75 80 68 78 73 66 63 62 64 59 58 66 56 48 46 51 52 55
23 22 26 27 26 27 31 34 36 32 29 27 23 20 17 14 14 12 10 24 42 42 36 60 77 78 79 93 83 76 72 72 70 67 61 72 99 60 53 54 64 66 60
25 30 31 32 33 36 39 43 47 50 39 33 28 23 19 15 13 12 14 16 32 41 45 42 78 78 78 85 83 76 79 70 67 77 74 84 77 56 66 76 84 78 60
28 20 17 20 23 26 25 24 27 42 62 67 55 39 34 28 22 14 11 18 33 33 42 50 74 71 73 73 65 66 72 60 70 84 84 96 64 79 83 89 86 70 76
26 22 22 23 30 36 35 29 41 71 81 68 62 62 59 44 35 27 18 13 54 38 44 61 70 62 66 70 55 55 56 74 98 84 70 70 79 98 95 86 76 82 88
24 18 21 37 42 49 33 31 62 90 86 75 77 62 48 32 23 24 19 48 80 49 59 59 45 51 65 64 44 76 59 93 79 69 80 81 92 95 84 79 93 93 93
26 32 52 43 64 69 37 40 69 87 79 65 49 39 31 25 23 20 23 64 69 63 74 62 51 50 60 41 49 56 98 80 96 96 86 94 87 74 91 97 94 90 96
31 48 38 20 26 37 31 31 35 36 34 32 36 41 32 24 24 24 20 49 62 86 100 60 48 53 42 48 50 98 70 100 96 98 96 82 76 90 94 92 91 100 79
35 25 22 24 22 36 48 68 78 94 78 59 49 33 44 45 52 50 52 65 82 89 96 54 59 43 48 55 96 97 100 100 99 100 99 88 86 84 87 90 72 79 93
42 35 48 52 62 90 100 100 99 86 94 80 48 48 97 100 96 93 85 85 67 99 70 58 43 49 58 61 66 99 98 98 93 85 98 92 79 75 70 75 88 93 80
56 58 54 67 88 98 100 93 52 34 32 46 60 67 57 77 96 92 74 74 88 83 69 60 57 82 75 98 98 96 96 90 97 97 94 64 65 73 86 86 80 74 78
60 82 77 66 79 96 98 52 62 85 90 95 98 98 91 89 93 94 99 94 66 72 68 79 83 99 100 95 97 98 99 95 73 56 54 65 74 74 64 66 65 66 65
69 76 93 70 76 97 99 99 92 87 96 99 100 100 99 88 100 70 70 69 63 98 99 100 99 99 98 99 99 99 73 52 50 53 57 55 53 56 61 59 52 52 60
76 84 73 82 88 95 99 90 98 99 88 100 99 89 77 76 87 91 91 100 100 99 97 98 99 98 84 67 51 48 49 53 52 49 45 40 36 37 40 45 54 63 73
73 76 80 84 90 80 84 96 98 100 97 98 98 100 99 100 99 99 99 98 98 98 95 79 61 49 47 44 45 48 44 37 24 21 21 22 23 25 29 32 35 34 34
78 76 85 87 77 89 84 72 70 72 77 80 79 82 89 90 70 62 58 51 51 51 51 50 46 45 46 43 37 23 16 10 7 7 6 6 8 8 7 8 8 7 8
74 78 78 84 82 77 76 72 72 67 64 62 62 61 59 59 60 58 55 51 48 49 47 44 43 41 31 20 13 10 7 5 4 4 4 5 7 7 5 2 3 5 6
88 76 76 78 77 76 78 77 73 74 71 66 64 62 59 54 52 50 48 48 45 45 47 42 31 22 13 11 9 6 5 5 4 4 6 8 7 3 3 4 5 6 14
100 96 86 86 84 83 79 77 72 67 64 62 61 62 62 60 57 54 51 50 50 46 36 26 17 13 12 9 6 6 6 4 4 7 7 5 3 4 4 6 17 30 39